Jacksonville, FL

9:05 AM EDT on April 29, 2017 (GMT -0400)
Jacksonville International

Weather History for KJAX - January, 2014

Change the Weather History Date:

Saturday, January 4, 2014

  Actual Average Record
Temperature  
Mean Temperature 44 °F 53 °F  
Max Temperature 53 °F 64 °F 82 °F (1973)
Min Temperature 34 °F 41 °F 22 °F (1887)
Degree Days  
Heating Degree Days 21 13  
Month to date heating degree days 62 51  
Since 1 July heating degree days 420 547  
Cooling Degree Days 0 0  
Month to date cooling degree days 0 0  
Year to date cooling degree days 0 0  
Moisture  
Dew Point 40 °F    
Average Humidity 82    
Maximum Humidity 93    
Minimum Humidity 70    
Precipitation  
Precipitation 0.00 in 0.09 in 1.74 in (1903)
Month to date precipitation 2.40 0.35  
Year to date precipitation 2.40 0.35  
Snow  
Snow 0.00 in 0.00 in T in (1879)
Month to date snowfall 0.0 0.0  
Since 1 July snowfall 0.0 T  
Snow Depth 0.00 in    
Sea Level Pressure  
Sea Level Pressure 30.26 in    
Wind  
Wind Speed 9 mph (NNE)    
Max Wind Speed 16 mph    
Max Gust Speed 19 mph    
Visibility 10 miles    
Events      
T = Trace of Precipitation, MM = Missing Value Source: NWS Daily Summary

Daily Weather History Graph

Daily Weather History Graph

Search for Another Location

Airport or City:

Trip Planner

Search our weather history database for the weather conditions in past years. The results will help you decide how hot, cold, wet, or windy it might be!

Date:

Astronomy

Jan. 04, 2014 Rise Set
Actual Time 7:24 AM EST 5:39 PM EST
Civil Twilight 6:58 AM EST 6:05 PM EST
Nautical Twilight 6:28 AM EST 6:35 PM EST
Astronomical Twilight 5:58 AM EST 7:04 PM EST
Moon 9:45 AM EST (1/4) 9:38 PM EST (1/4)
Length of Visible Light 11h 07m
Length of Day
10h 14m
Waxing Crescent, 15% of the Moon is Illuminated
Jan 4
Waxing Crescent
Jan 7
First Quarter
Jan 15
Full
Jan 24
Last Quarter
Jan 30
New

Hourly Weather History & Observations

Time (EST) Temp. Windchill Dew Point Humidity Pressure Visibility Wind Dir Wind Speed Gust Speed Precip Events Conditions
12:56 AM 35.1 °F 27.4 °F 26.1 °F 70% 30.31 in 10.0 mi North 10.4 mph - N/A   Partly Cloudy
1:56 AM 34.0 °F 28.8 °F 26.1 °F 73% 30.30 in 10.0 mi North 5.8 mph - N/A   Partly Cloudy
2:56 AM 35.1 °F 31.0 °F 27.0 °F 72% 30.31 in 10.0 mi NNW 4.6 mph - N/A   Mostly Cloudy
3:56 AM 35.1 °F 28.6 °F 28.0 °F 76% 30.28 in 10.0 mi North 8.1 mph - N/A   Mostly Cloudy
4:56 AM 36.0 °F 29.6 °F 28.9 °F 76% 30.29 in 10.0 mi North 8.1 mph - N/A   Mostly Cloudy
5:48 AM 36.0 °F 28.5 °F 30.0 °F 79% 30.28 in 10.0 mi North 10.4 mph - N/A   Mostly Cloudy
5:56 AM 37.0 °F 29.3 °F 30.9 °F 79% 30.28 in 10.0 mi NNE 11.5 mph - N/A   Overcast
6:56 AM 37.9 °F 32.1 °F 32.0 °F 79% 30.30 in 10.0 mi North 8.1 mph - N/A   Overcast
7:56 AM 39.9 °F 35.1 °F 33.1 °F 77% 30.33 in 10.0 mi North 6.9 mph - N/A   Overcast
8:56 AM 42.1 °F 35.7 °F 35.1 °F 76% 30.32 in 10.0 mi North 11.5 mph - N/A   Overcast
9:56 AM 44.1 °F 38.6 °F 37.9 °F 79% 30.34 in 10.0 mi North 10.4 mph - N/A   Overcast
10:56 AM 46.9 °F - 41.0 °F 80% 30.32 in 10.0 mi NNE 12.7 mph - N/A   Overcast
11:56 AM 50.0 °F - 44.1 °F 80% 30.31 in 10.0 mi NNE 11.5 mph - N/A   Overcast
12:56 PM 52.0 °F - 46.0 °F 80% 30.26 in 10.0 mi NNE 10.4 mph - N/A   Overcast
1:56 PM 52.0 °F - 46.9 °F 83% 30.26 in 10.0 mi NNE 8.1 mph - N/A   Overcast
2:56 PM 53.1 °F - 46.9 °F 80% 30.24 in 10.0 mi NE 10.4 mph - N/A   Overcast
3:56 PM 52.0 °F - 46.9 °F 83% 30.23 in 10.0 mi North 10.4 mph - N/A   Overcast
4:37 PM 51.1 °F - 46.9 °F 86% 30.21 in 10.0 mi NE 15.0 mph - N/A   Overcast
4:56 PM 51.1 °F - 48.0 °F 89% 30.22 in 10.0 mi NNE 6.9 mph - N/A   Overcast
5:56 PM 50.0 °F - 48.0 °F 93% 30.21 in 10.0 mi NNE 8.1 mph - N/A   Overcast
6:56 PM 50.0 °F - 48.0 °F 93% 30.22 in 10.0 mi NNE 11.5 mph - N/A   Overcast
7:56 PM 50.0 °F - 48.9 °F 96% 30.22 in 9.0 mi NNE 8.1 mph - N/A   Overcast
8:56 PM 50.0 °F - 48.9 °F 96% 30.22 in 8.0 mi North 6.9 mph - N/A   Overcast
9:56 PM 51.1 °F - 48.9 °F 92% 30.19 in 8.0 mi NNE 8.1 mph - N/A   Overcast
10:56 PM 51.1 °F - 48.9 °F 92% 30.17 in 8.0 mi North 5.8 mph - N/A   Overcast
11:51 PM 51.8 °F - 48.2 °F 88% 30.15 in 10.0 mi North 5.8 mph - N/A   Overcast
11:56 PM 50.0 °F - 48.9 °F 96% 30.14 in 10.0 mi NNE 6.9 mph - N/A   Overcast